Tracking 22779 objects as of 12-Apr-2021
HD Live streaming from Space Station
objects crossing your sky now

STARLINK-1886

Track STARLINK-1886 now!
10-day predictions
STARLINK-1886 is classified as:


NORAD ID: 47169
Int'l Code: 2020-088AZ
Perigee: 510.4 km
Apogee: 516.2 km
Inclination: 53.1 °
Period: 94.7 minutes
Semi major axis: 6884 km
RCS: Unknown
Launch date: November 25, 2020
Source: United States (US)
Launch site: AIR FORCE EASTERN TEST RANGE (AFETR)
aabbcc
Your satellite tracking list
Your tracking list is empty




NASA's NSSDC Master Catalog

Two Line Element Set (TLE):
1 47169U 20088AZ  21101.91668981 -.00006457  00000-0 -28223-3 0  9992
2 47169  53.0573  52.1974 0004228  22.8812  92.9091 15.19900496  1767
Source of the keplerian elements: AFSPC